Location: Losana de Pirón
(41.0684°N, 4.0231°W)
Time: 05:34:19
(UTC+00:00)

Daily predictions for brighter satellites

Satellite Brightness Start Highest point End
(mag) Time Altitude Azimuth Time Altitude Azimuth Time Altitude Azimuth
Okean 1-7 4.1 00:06:47 44° N 00:06:47 44° N 00:09:53 10° N
Meteor 1-13 Rocket 4.5 00:09:08 58° WNW 00:09:08 58° WNW 00:14:39 10° N
ALOS 2 3.9 00:11:03 36° NW 00:11:03 36° NW 00:13:55 10° NNW
USA 267 3.1 00:10:32 69° SW 00:10:34 69° SW 00:17:07 10° NW
Cosmos 923 Rocket 4.2 00:05:16 10° NNW 00:10:11 67° NE 00:10:11 67° NE
ATLAS CENTAUR R/B 4.3 00:09:57 10° N 00:13:07 17° NE 00:16:12 10° E
Cosmos 2266 Rocket 4.0 00:10:57 10° NNW 00:17:11 68° W 00:17:18 68° W
ADEOS Rocket 2.8 00:20:35 74° WNW 00:20:35 74° WNW 00:25:56 10° NNW
ERS-2 4.5 00:18:59 10° NNW 00:20:41 21° NW 00:20:41 21° NW
Cosmos 2237 4.4 00:26:11 64° WNW 00:26:16 64° WNW 00:31:58 10° NNE
Cosmos 1844 Rocket 2.8 00:21:44 10° NNW 00:27:18 68° ENE 00:27:18 68° ENE
Cosmos 1844 4.0 00:22:42 10° NNW 00:28:27 59° ENE 00:28:57 57° E
Cosmos 1937 Rocket 3.7 00:29:41 64° NE 00:29:41 64° NE 00:34:12 10° NNE
Cosmos 2112 Rocket 4.2 00:26:06 10° NNW 00:31:09 66° NE 00:31:09 66° NE
Cosmos 1680 Rocket 3.7 00:29:31 10° NNW 00:34:17 71° N 00:34:17 71° N
Cosmos 2219 Rocket 2.8 00:39:12 44° E 00:39:12 44° E 00:43:56 10° NE
Cosmos 1470 4.5 00:35:03 10° N 00:37:14 32° N 00:37:14 32° N
Resurs 1-4 Rocket 4.1 00:35:50 10° NE 00:38:58 16° E 00:39:18 16° E
Cosmos 1707 4.5 00:40:54 31° NNE 00:40:54 31° NNE 00:43:04 10° NNE
SL-16 R/B 3.3 00:38:30 32° W 00:39:33 35° WNW 00:44:43 10° N
CZ-4C R/B 4.5 00:33:50 10° NNW 00:40:07 32° NE 00:47:20 10° ESE
SL-08 ROCKET BODY 4.3 00:34:52 10° N 00:40:48 76° E 00:40:56 75° E
COSMOS 2428 3.7 00:44:03 35° E 00:44:03 35° E 00:48:48 10° NE
Cosmos 1300 Rocket 4.5 00:43:07 10° N 00:46:12 46° N 00:46:12 46° N
ATLAS 3B R/B 2.8 00:40:48 10° NW 00:48:10 67° WSW 00:48:51 64° SSW
Cosmos 1898 Rocket 4.0 00:48:35 51° WNW 00:48:35 51° WNW 00:53:42 10° N
Meteor 1-22 Rocket 4.3 00:43:19 10° NNW 00:49:02 70° W 00:49:02 70° W
ASTEX 1 3.6 00:44:50 10° N 00:49:02 66° N 00:49:02 66° N
Cosmos 1626 4.1 00:55:39 26° NE 00:55:39 26° NE 00:57:31 10° NNE
Cosmos 2237 Rocket 4.2 00:57:20 16° ESE 00:57:54 16° E 01:01:16 10° ENE
Nadezhda 2 Rocket 4.3 00:54:05 10° N 01:00:17 85° W 01:00:39 79° SSW
Cosmos 2333 4.1 01:02:00 80° WNW 01:02:00 80° WNW 01:07:36 10° NNE
Cosmos 1553 Rocket 3.8 01:02:58 76° SSE 01:03:24 82° E 01:09:34 10° N
Cosmos 1244 Rocket 4.3 00:58:42 10° N 01:05:03 81° W 01:05:34 75° SSW
ADEOS II 4.2 01:04:31 10° ENE 01:07:25 15° E 01:08:46 14° ESE
Cosmos 405 Rocket 4.5 01:10:48 28° NE 01:10:48 28° NE 01:12:57 10° NNE
Cosmos 2221 Rocket 4.1 01:10:52 56° NNE 01:10:52 56° NNE 01:14:23 10° N
Cosmos 2360 Rocket 3.0 01:13:37 37° WNW 01:14:24 38° WNW 01:19:40 10° N
Okean 1 Rocket 4.2 01:12:37 10° N 01:16:43 37° ENE 01:16:47 37° E
ATLAS 5 CENTAUR R/B 3.2 01:07:13 10° NW 01:18:22 61° NE 01:19:49 40° ESE
Cosmos 2278 Rocket 3.8 01:23:39 10° N 01:28:40 31° ENE 01:33:39 10° ESE
CZ-2D R/B 2.7 01:24:41 10° NNE 01:29:52 45° E 01:30:34 42° ESE
Cosmos 1867 3.6 01:31:00 66° SE 01:31:07 66° ESE 01:36:33 10° NE
SME Rocket 3.5 01:32:57 54° NE 01:32:57 54° NE 01:36:46 10° N
Cosmos 2333 Rocket 2.7 01:33:18 45° W 01:34:02 47° WNW 01:39:32 10° NNE
Cosmos 1125 Rocket 3.8 01:37:42 51° ESE 01:38:04 53° ESE 01:43:07 10° NNE
Cosmos 2322 3.9 01:40:26 53° W 01:41:12 58° WNW 01:46:52 10° NNE
SL-16 R/B 3.2 01:37:47 23° SE 01:41:24 50° ENE 01:47:22 10° N
Cosmos 1745 Rocket 3.9 01:36:06 10° N 01:42:23 83° W 01:43:37 60° S
Cosmos 1674 Rocket 4.0 01:43:30 54° NW 01:43:30 54° NW 01:47:11 10° N
Thor Agena Rocket 3.6 01:40:23 10° N 01:45:36 65° WNW 01:46:03 62° WSW
Cosmos 2298 Rocket 4.1 01:45:28 60° SE 01:46:01 65° ESE 01:51:16 10° NNE
USA 290 4.1 01:48:51 30° N 01:48:51 30° N 01:50:39 10° NNE
Cosmos 1980 4.2 01:46:55 42° SE 01:47:58 46° ESE 01:53:21 10° NE
Cosmos 2322 Rocket 4.4 01:47:02 11° WNW 01:49:45 15° NW 01:52:50 10° NNW
ATLAS CENTAUR R/B 1.6 01:47:43 10° NW 01:52:17 77° WNW 01:52:17 77° WNW
Cosmos 1818 3.8 01:48:44 10° NW 01:53:24 50° W 01:53:24 50° W
SL-14 R/B 3.6 01:56:23 60° NNW 01:56:23 60° NNW 01:59:39 10° N
Cosmos 494 Rocket 3.9 01:52:46 10° NNW 01:57:54 79° ENE 01:59:08 52° SE
AQUA 4.3 01:54:05 10° NNE 01:58:44 51° E 01:59:34 45° SE
Okean 2 Rocket 4.4 01:55:56 10° NNW 01:58:57 28° WNW 01:58:57 28° WNW
Cosmos 1455 Rocket 4.3 01:57:05 10° N 02:01:16 38° ENE 02:03:00 27° ESE
Cosmos 1378 Rocket 4.4 02:02:46 38° WNW 02:02:46 38° WNW 02:06:33 10° N
Cosmos 1953 2.8 01:59:39 10° NNW 02:02:56 53° NW 02:02:56 53° NW
GP-B 3.1 02:00:26 10° N 02:04:48 68° W 02:04:48 68° W
Cosmos 371 Rocket 3.2 02:04:37 70° S 02:05:10 83° ESE 02:10:03 10° NNE
Meteor 1-16 Rocket 4.4 02:01:24 10° NNW 02:07:13 57° W 02:08:12 51° SW
Cosmos 883 Rocket 4.4 02:06:43 50° SSW 02:08:26 75° W 02:14:47 10° N
UNK 4.0 02:07:23 43° SE 02:08:43 64° ENE 02:13:16 10° N
EO 1 Delta rocket 4.5 02:06:42 10° N 02:11:00 40° WNW 02:11:18 40° W
NPP 3.6 02:06:19 10° NNE 02:11:44 90° ESE 02:13:05 53° SSW
Meteor 1-28 Rocket 4.5 02:10:52 29° ESE 02:12:03 37° ENE 02:15:33 10° N
USA 32 4.0 02:11:21 56° SW 02:12:08 63° W 02:17:22 10° N
Cosmos 1975 Rocket 3.3 02:11:29 53° SE 02:12:10 62° E 02:16:33 10° NNE
USA 306 3.8 02:13:37 36° ESE 02:13:37 36° ESE 02:17:12 10° ENE
USA 307 4.0 02:13:44 31° ESE 02:13:44 31° ESE 02:17:13 10° ENE
CZ-4 R/B 3.8 02:10:44 10° N 02:15:21 64° WNW 02:15:53 59° WSW
Cosmos 468 4.4 02:11:18 10° NNW 02:16:31 72° WSW 02:17:37 54° S
Resurs 1-4 Rocket 2.2 02:13:59 10° N 02:19:11 63° WNW 02:20:23 49° SW
Cosmos 2315 Rocket 4.0 02:18:05 44° SSW 02:20:10 71° W 02:26:33 10° N
Cosmos 2219 Rocket 3.6 02:20:54 22° W 02:22:46 26° NW 02:27:26 10° N
Cosmos 1437 Rocket 3.9 02:19:30 10° NNW 02:21:54 30° WNW 02:21:54 30° WNW
NOSS 0 Rocket 4.0 02:22:49 42° SW 02:24:58 71° WNW 02:31:14 10° NNE
NOSS 3-1 (A) 4.1 02:17:19 10° NW 02:25:03 87° WSW 02:34:02 10° SSE
SAR-Lupe-2 3.5 02:21:43 10° N 02:25:09 76° NW 02:25:09 76° NW
FALCON 9 R/B 4.3 01:55:08 10° W 02:27:20 59° SSW 02:35:17 10° SE
MOS 1 Rocket 3.0 02:26:10 46° SSE 02:27:25 82° ENE 02:31:43 10° N
COSMOS 2428 3.8 02:26:02 27° W 02:27:53 34° WNW 02:33:02 10° N
CZ-4C R/B 3.0 02:21:51 10° NW 02:29:22 76° WSW 02:38:01 10° SSE
Cosmos 304 Rocket 3.7 02:30:28 52° SSW 02:31:41 89° WNW 02:36:32 10° NNE
NOSS 3-1 (C) 4.3 02:28:52 10° NW 02:36:23 50° WSW 02:43:14 16° S
Cosmos 1709 Rocket 4.2 02:31:47 10° NNW 02:37:40 49° W 02:39:40 36° SW
Cosmos 2237 Rocket 2.2 02:39:10 39° SW 02:41:17 69° WNW 02:46:59 10° NNE
Cosmos 1455 3.6 02:39:35 10° N 02:43:01 34° ENE 02:45:55 13° SE
Cosmos 1025 Rocket 2.9 02:41:57 50° SSW 02:43:02 75° W 02:47:22 10° N
USA 308 3.0 02:42:41 48° S 02:43:28 58° SE 02:47:35 10° ENE
Cosmos 2084 Rocket 4.5 02:43:24 26° SSE 02:44:23 30° ESE 02:47:45 10° ENE
Cosmos 1544 Rocket 4.0 02:42:22 10° N 02:46:47 61° E 02:49:52 19° SSE
Cosmos 1300 3.8 02:43:48 10° NNW 02:46:41 30° WNW 02:46:41 30° WNW
ADEOS II 2.1 02:42:20 10° N 02:47:33 67° WNW 02:49:42 35° SW
Lacrosse 5 3.2 02:48:06 21° SSE 02:50:22 30° SE 02:54:47 10° ENE
NOSS 2-2 (D) 4.4 02:47:59 10° NW 02:53:27 83° SW 03:01:10 10° SSE
Cosmos 839 Rocket 4.2 02:49:39 10° NW 02:56:04 69° WSW 03:03:49 10° SSE
IDEFIX/ARIANE 42P 2.7 02:53:55 10° N 02:59:08 64° WNW 03:01:42 30° SW
Cosmos 1461 3.4 02:55:39 10° NW 02:59:32 37° WSW 02:59:38 37° WSW
Cosmos 332 Rocket 4.1 03:02:46 32° SW 03:04:41 50° WNW 03:09:22 10° N
Meteor 2-10 Rocket 4.3 03:00:50 10° NNW 03:06:05 38° W 03:08:20 27° SW
CZ-2D R/B 3.5 03:05:19 10° NNW 03:09:35 24° WNW 03:11:53 18° W
USA 305 2.9 03:09:06 31° WSW 03:10:58 69° NW 03:15:08 10° NE
Cosmos 2278 Rocket 2.7 03:07:34 10° NW 03:12:48 39° WSW 03:16:04 21° SSW
Meteor 2-5 Rocket 4.2 03:10:05 26° SW 03:13:08 48° WNW 03:18:42 10° N
ERBS 1.9 03:14:11 46° SW 03:14:58 86° SE 03:18:03 10° NE
Meteor 1-24 Rocket 4.0 03:13:15 25° SW 03:16:28 52° WNW 03:21:55 10° N
Nadezhda 1 Rocket 4.0 03:15:12 15° S 03:20:44 87° W 03:27:07 10° N
H-II Stage 2 4.3 03:04:32 10° W 03:21:21 32° SSW 03:25:37 10° SE
EO 1 Del DPAF 4.4 03:18:58 10° NNW 03:21:51 24° WNW 03:22:46 21° W
SL-16 R/B 2.2 03:20:09 20° SSW 03:24:12 89° ESE 03:29:55 10° NNE
SL-16 R/B 3.5 03:22:52 21° SW 03:25:13 26° W 03:30:18 10° NW
FENGYUN 3A 4.2 03:21:26 10° NNE 03:26:44 55° E 03:31:59 10° S
COSMOS 2455 3.6 03:23:19 11° S 03:28:48 49° ESE 03:34:34 10° NE
Cosmos 1943 Rocket 2.4 03:23:59 10° NNW 03:29:41 77° ENE 03:35:21 10° SSE
Cosmos 2369 Rocket 4.2 03:26:38 10° N 03:31:37 32° ENE 03:36:34 10° ESE
OE (NEXTSAT) 4.3 03:31:17 10° WNW 03:34:37 79° NNE 03:37:56 10° ESE
Cosmos 2154 Rocket 4.1 03:33:23 10° NNW 03:39:41 65° W 03:45:54 10° S
Helios 1A 4.4 03:39:26 18° WSW 03:40:40 21° W 03:43:50 10° NW
ARIANE 5 R/B 3.3 03:35:52 10° NNE 03:40:49 50° E 03:45:42 10° S
CBERS-1 4.0 03:36:02 10° N 03:41:07 68° WNW 03:45:42 13° SSW
Cosmos 1536 Rocket 3.9 03:38:45 17° SSW 03:41:56 49° W 03:46:15 10° N
Lacrosse 5 rocket 2.2 03:39:49 14° SSW 03:42:48 38° SE 03:46:36 10° ENE
IRS-1D 4.2 03:38:48 10° N 03:43:49 42° WNW 03:47:55 15° SW
IRS-1C 4.5 03:39:16 10° NNE 03:44:36 67° ESE 03:49:53 10° S
USA 229 DEB 4.5 03:42:20 10° NW 03:49:02 36° WSW 03:56:01 10° S
USA 229 4.5 03:42:26 10° NW 03:49:08 36° WSW 03:56:07 10° S
ALOS 2.4 03:46:23 10° NNE 03:51:04 79° E 03:55:43 10° S
USA 306 3.9 03:49:21 12° W 03:52:56 36° NNW 03:56:50 10° NE
USA 307 3.7 03:49:30 13° W 03:53:01 41° NNW 03:57:01 10° NE
MOS 1-B Rocket 3.8 03:50:24 10° S 03:56:08 65° WSW 04:01:43 10° NNW
Cosmos 1271 Rocket 2.8 03:53:07 10° NNW 03:56:50 55° W 04:00:34 10° S
Meteor 1-29 3.2 03:54:37 10° NNE 03:57:51 63° E 04:01:03 10° S
Helios 1B rocket 3.0 03:58:12 10° N 04:02:00 39° WNW 04:05:44 10° SW
Cosmos 2228 3.2 04:02:35 10° NNW 04:06:53 56° W 04:11:07 10° S
ATLAS 2A CENTAUR R/B 4.5 03:59:52 10° SW 04:07:22 19° S 04:11:39 10° SE
Cosmos 1606 Rocket 3.5 04:05:50 10° N 04:10:17 80° W 04:14:40 10° S
SeaSat 1 2.5 04:05:34 10° NNE 04:10:30 71° WNW 04:15:23 10° SW
CZ-2C R/B 2.6 04:09:22 10° N 04:14:30 64° WNW 04:19:30 10° SSW
Meteor 1-21 Rocket 4.4 04:09:52 10° SSW 04:15:31 62° WNW 04:21:06 10° N
Cosmos 1656 Rocket 4.5 04:11:48 10° NNW 04:17:09 56° ENE 04:22:27 10° SE
CZ-4C R/B 4.4 04:12:34 10° WNW 04:17:17 17° WSW 04:22:18 10° SW
Cosmos 1455 4.1 04:16:19 10° WNW 04:18:08 13° W 04:19:57 10° WSW
Cosmos 1703 4.5 04:18:02 10° SW 04:21:22 26° WNW 04:24:43 10° NNW
USA 308 4.4 04:19:42 10° W 04:23:20 28° NNW 04:26:58 10° NE
Cosmos 1943 3.5 04:19:23 10° SSW 04:25:04 73° ESE 04:30:45 10° NNE
IRS-P3 4.3 04:19:58 10° N 04:25:13 58° WNW 04:30:26 10° SSW
Cosmos 2218 Rocket 4.1 04:19:00 10° N 04:25:15 88° W 04:31:32 10° S
